Location: Hamlin Beach State Park
(43.3614°N, 77.9586°W)
Time: 12:23:49
(UTC-05:00)

OTV 5 (USA 277) - Visible Passes

Search period start: 17 November 2017 00:00
Search period end: 27 November 2017 00:00
Orbit: 404 x 417 km, 43.0° (Epoch: 07 September)

Date Brightness Start Highest point End Pass type
(mag) Time Alt. Az. Time Alt. Az. Time Alt. Az.
17 Nov ? 04:20:20 13° E 04:20:20 13° E 04:20:46 10° E visible
17 Nov ? 05:53:06 25° W 05:54:41 48° SSW 05:57:52 10° ESE visible
18 Nov ? 05:04:29 43° SE 05:04:29 43° SE 05:06:56 10° ESE visible
19 Nov ? 04:15:56 10° ESE 04:15:56 10° ESE 04:15:56 10° ESE visible
19 Nov ? 05:48:41 22° WSW 05:49:41 26° SSW 05:52:30 10° SSE visible
20 Nov ? 05:00:10 23° SSE 05:00:10 23° SSE 05:01:46 10° SE visible
21 Nov ? 05:44:28 13° SW 05:44:32 13° SW 05:46:09 10° S visible
